Flag for Turkey Weather past 2 weeks in Gaziantep, Turkey

Now
97 °F

Sunny.


Feels Like: 92 °F
Forecast: 61 / 93 °F
Wind: 12 mph from West

Location: Gaziantep Airport

Current Time: Jul 2, 2015 at 3:47:21 PM

Latest Report: Jul 2, 2015 at 2:50 PM


Visibility: 10 mi

Pressure: 29.86 "Hg

Humidity: 10%

Dew point: 32 °F

Location of GaziantepLocation

Historic Weather in Gaziantep — Graph

°F

Gaziantep temperature yesterday

Maximum temperature yesterday: 95 °F (at 2:50 PM)
Minimum temperature yesterday: 59 °F (at 4:20 AM)
Average temperature yesterday: 79 °F

Past Weeks' High & Low Weather Summary

 TemperatureHumidityPressure
High97 °F (Jul 2, 1:50 PM)77% (Jun 19, 5:20 AM)29.98 "Hg (Jun 19, 5:20 AM)
Low57 °F (Jun 28, 5:50 AM)10% (Jul 2, 2:50 PM)29.59 "Hg (Jun 26, 3:50 PM)
Average77 °F43%29.76 "Hg
* Reported Jun 17 2:20 PM — Jul 2 2:50 PM, Gaziantep, Weather by CustomWeather, © 2015

Note: Actual official high and low records may vary slightly from our data, if they occured in-between our weather recording intervals... More about our weather records

Advertising

Gaziantep weather history for previous 24 hours

 ConditionsComfort  
Time TempWeatherWind HumidityBarometerVisibility
2:50 PM
Thu, Jul 2
97 °FSunny.12 mph10%29.86 "Hg10 mi
2:20 PM95 °FSunny.12 mph13%29.86 "Hg10 mi
1:50 PM97 °FPassing clouds.10 mph11%29.86 "HgN/A
1:20 PM95 °FPassing clouds.13 mph20%29.86 "HgN/A
12:50 PM93 °FPassing clouds.12 mph20%29.86 "HgN/A
12:20 PM95 °FPassing clouds.8 mph14%29.86 "HgN/A
11:50 AM95 °FPassing clouds.8 mph14%29.86 "HgN/A
11:20 AM93 °FPassing clouds.7 mph15%29.89 "HgN/A
10:50 AM93 °FSunny.2 mph17%29.89 "Hg10 mi
10:20 AM91 °FSunny.6 mph20%29.89 "Hg10 mi
9:50 AM90 °FSunny.5 mph24%29.89 "Hg10 mi
9:20 AM90 °FSunny.2 mph24%29.89 "Hg10 mi
8:50 AM88 °FSunny.No wind31%29.89 "Hg10 mi
8:20 AM86 °FSunny.No wind35%29.89 "Hg10 mi
7:50 AM82 °FSunny.No wind37%29.89 "Hg10 mi
7:20 AM75 °FSunny.No wind44%29.89 "Hg10 mi
6:50 AM70 °FSunny.No wind53%29.89 "Hg10 mi
6:20 AM66 °FSunny.No wind56%29.89 "Hg10 mi
5:50 AM63 °FClear.No wind64%29.86 "Hg10 mi
5:20 AM61 °FClear.No wind68%29.89 "Hg10 mi
4:50 AM63 °FClear.No wind56%29.86 "Hg10 mi
4:20 AM63 °FClear.No wind59%29.89 "Hg10 mi
3:50 AM64 °FClear.No wind56%29.89 "Hg10 mi
3:20 AM64 °FClear.No wind60%29.89 "Hg10 mi
2:50 AM64 °FClear.No wind64%29.89 "Hg10 mi
2:20 AM66 °FClear.No wind56%29.89 "Hg10 mi
1:50 AM68 °FClear.No wind49%29.89 "Hg10 mi
1:20 AM72 °FClear.No wind47%29.89 "Hg10 mi
12:50 AM72 °FClear.No wind47%29.89 "Hg10 mi
11:50 PM
Wed, Jul 1
72 °FClear.1 mph50%29.89 "Hg10 mi
11:20 PM73 °FClear.1 mph47%29.92 "Hg10 mi
10:50 PM77 °FClear.1 mph39%29.92 "Hg10 mi
10:20 PM75 °FClear.No wind44%29.92 "Hg10 mi
9:50 PM77 °FClear.5 mph39%29.92 "Hg10 mi
9:20 PM79 °FClear.No wind37%29.92 "Hg10 mi
8:50 PM79 °FSunny.6 mph34%29.89 "Hg10 mi
8:20 PM82 °FSunny.8 mph30%29.89 "Hg10 mi
7:50 PM84 °FSunny.7 mph27%29.89 "Hg10 mi
7:20 PM90 °FSunny.8 mph21%29.89 "Hg10 mi
6:50 PM91 °FSunny.10 mph18%29.89 "Hg10 mi
6:20 PM91 °FSunny.8 mph18%29.89 "Hg10 mi
5:50 PM93 °FPassing clouds.6 mph16%29.89 "HgN/A
5:20 PM93 °FPassing clouds.3 mph15%29.89 "HgN/A
4:50 PM95 °FPassing clouds.7 mph15%29.89 "HgN/A
4:20 PM95 °FPassing clouds.3 mph14%29.89 "HgN/A
3:50 PM95 °FSunny.3 mph14%29.89 "Hg10 mi
3:20 PM93 °FPassing clouds.8 mph15%29.92 "HgN/A
Weather by CustomWeather, © 2015

See weather overviewHow to use our weather pages